sat.trackr.live / text

‹ back to catalog

STARLINK-3297

NORAD 50159 · 2021-125D

PAYLOAD ACTIVE UNKNOWN

§ Identity

Operator
Country
US
Launch date
2021-12-18
Launch site
AFWTR
Launch vehicle
Mass (kg)
RCS (m²)

Purposes: comms

External: N2YO · Heavens-Above · Gunter

§ Orbital elements

Epoch: 2026-05-24T14:33:24.519456Z

Period
95.44 min
Inclination
53.2158°
Eccentricity
0.0001509
Mean motion
15.08830735 rev/d
Perigee alt
538.7 km
Apogee alt
540.8 km
Semi-major
6,917.9 km
B*
-7.3270e-6
RAAN
278.3277°
Arg perigee
96.5589°
Mean anomaly
263.5575°
Rev number
24,791

§ Raw data

STARLINK-32971 50159U 21125D   26144.60653379 -.00000405  00000+0 -73270-5 0  99912 50159  53.2158 278.3277 0001509  96.5589 263.5575 15.08830735247915

JSON: /api/v1/satellites/50159 · /tle

For live sub-satellite position, see the globe view (requires WebGL).

§ Visibility from observer

Set your observer location to see the next 7 days of passes ≥ 10°. The values pass through the URL so the page stays shareable.

No JS? Fill the form by hand. The geolocation button needs JavaScript.